Simultaneous Nadir Overpasses (SNOs) Predictions

Prediction of SNOs between GOES-16 and METOP-C Satellite Orbit:

Table of predicted SNOs for the next 14.0 days since TLE Epoch: 11/26/2022
Index Date Time (GOES-16) GOES-16 Lat,Lon METOP-C Lat,Lon Distance(km) Time Diff (sec)
1 11/27/2022 02:36:17 0.06, -75.19 -0.15, -76.12 105.93 80
2 11/28/2022 02:12:58 0.06, -75.20 0.99, -71.14 463.60 80
3 11/29/2022 14:34:32 -0.05, -75.22 0.04, -75.70 54.11 80
4 12/02/2022 02:30:13 0.05, -75.24 0.06, -75.30 6.90 80
5 12/04/2022 14:28:26 -0.04, -75.29 -0.12, -74.86 48.23 80
6 12/06/2022 02:50:07 0.04, -75.30 -0.86, -79.46 473.15 80
7 12/07/2022 02:26:47 0.04, -75.32 0.23, -74.46 97.96 80
8 12/08/2022 14:48:21 -0.03, -75.36 0.79, -79.03 417.60 80
9 12/09/2022 14:25:01 -0.03, -75.38 -0.30, -74.03 153.89 80
